Time,TemperatureF,DewpointF,PressureIn,WindDirection,WindDirectionDegrees,WindSpeedMPH,WindSpeedGustMPH,Humidity,HourlyPrecipIn,Conditions,Clouds,dailyrainin,SoftwareType,DateUTC
2013-01-08 00:33:00,28.0,23.0,-100.00,SW,230,2.0,4.0,82,0.00,,,-99.99,,2013-01-08 06:33:00,
2013-01-08 00:43:00,28.0,23.0,-100.00,SW,230,2.0,4.0,82,0.00,,,-99.99,,2013-01-08 06:43:00,
2013-01-08 00:53:00,28.0,23.0,-100.00,SW,230,2.0,4.0,82,0.00,,,-99.99,,2013-01-08 06:53:00,
2013-01-08 01:02:00,28.0,23.0,-100.00,SW,230,2.0,4.0,82,0.00,,,-99.99,,2013-01-08 07:02:00,
2013-01-08 02:32:00,25.0,22.0,-100.00,SW,230,2.0,3.0,90,0.00,,,-99.99,,2013-01-08 08:32:00,
2013-01-08 02:42:00,25.0,22.0,-100.00,SW,230,2.0,3.0,90,0.00,,,-99.99,,2013-01-08 08:42:00,
2013-01-08 02:53:00,25.0,22.0,-100.00,SW,230,2.0,3.0,90,0.00,,,-99.99,,2013-01-08 08:53:00,
2013-01-08 03:02:00,25.0,22.0,-100.00,SW,230,2.0,3.0,90,0.00,,,-99.99,,2013-01-08 09:02:00,
2013-01-08 04:33:00,21.0,19.0,-100.00,South,190,0.0,0.0,92,0.00,,,-99.99,,2013-01-08 10:33:00,
2013-01-08 04:42:00,21.0,19.0,-100.00,South,190,0.0,0.0,92,0.00,,,-99.99,,2013-01-08 10:42:00,
2013-01-08 04:52:00,21.0,19.0,-100.00,South,190,0.0,0.0,92,0.00,,,-99.99,,2013-01-08 10:52:00,
2013-01-08 05:02:00,21.0,19.0,-100.00,South,190,0.0,0.0,92,0.00,,,-99.99,,2013-01-08 11:02:00,
2013-01-08 06:33:00,20.0,18.0,-100.00,South,185,1.0,4.0,93,0.00,,,-99.99,,2013-01-08 12:33:00,
2013-01-08 06:43:00,20.0,18.0,-100.00,South,185,1.0,4.0,93,0.00,,,-99.99,,2013-01-08 12:43:00,
2013-01-08 06:53:00,20.0,18.0,-100.00,South,185,1.0,4.0,93,0.00,,,-99.99,,2013-01-08 12:53:00,
2013-01-08 07:03:00,20.0,18.0,-100.00,South,185,1.0,4.0,93,0.00,,,-99.99,,2013-01-08 13:03:00,
2013-01-08 08:33:00,18.0,16.0,-100.00,North,5,2.0,2.0,93,0.00,,,-99.99,,2013-01-08 14:33:00,
2013-01-08 08:43:00,18.0,16.0,-100.00,North,5,2.0,2.0,93,0.00,,,-99.99,,2013-01-08 14:43:00,
2013-01-08 08:53:00,18.0,16.0,-100.00,North,5,2.0,2.0,93,0.00,,,-99.99,,2013-01-08 14:53:00,
2013-01-08 09:02:00,18.0,16.0,-100.00,North,5,2.0,2.0,93,0.00,,,-99.99,,2013-01-08 15:02:00,
2013-01-08 10:34:00,27.0,25.0,-100.00,SSE,150,4.0,7.0,92,0.00,,,-99.99,,2013-01-08 16:34:00,
2013-01-08 10:43:00,27.0,25.0,-100.00,SSE,150,4.0,7.0,92,0.00,,,-99.99,,2013-01-08 16:43:00,
2013-01-08 10:53:00,27.0,25.0,-100.00,SSE,150,4.0,7.0,92,0.00,,,-99.99,,2013-01-08 16:53:00,
2013-01-08 11:03:00,27.0,25.0,-100.00,SSE,150,4.0,7.0,92,0.00,,,-99.99,,2013-01-08 17:03:00,
2013-01-08 11:42:00,35.0,24.0,-100.00,ESE,115,4.0,7.0,64,0.00,,,-99.99,,2013-01-08 17:42:00,
2013-01-08 12:03:00,35.0,24.0,-100.00,ESE,115,4.0,7.0,64,0.00,,,-99.99,,2013-01-08 18:03:00,
2013-01-08 12:13:00,35.0,24.0,-100.00,ESE,115,4.0,7.0,64,0.00,,,-99.99,,2013-01-08 18:13:00,
2013-01-08 12:23:00,35.0,24.0,-100.00,ESE,115,4.0,7.0,64,0.00,,,-99.99,,2013-01-08 18:23:00,
2013-01-08 12:33:00,35.0,24.0,-100.00,ESE,115,4.0,7.0,64,0.00,,,-99.99,,2013-01-08 18:33:00,
2013-01-08 13:23:00,35.0,24.0,-100.00,SSE,150,6.0,11.0,63,0.00,,,-99.99,,2013-01-08 19:23:00,
2013-01-08 13:32:00,35.0,24.0,-100.00,SSE,150,6.0,11.0,63,0.00,,,-99.99,,2013-01-08 19:32:00,
2013-01-08 13:42:00,35.0,24.0,-100.00,SSE,150,6.0,11.0,63,0.00,,,-99.99,,2013-01-08 19:42:00,
2013-01-08 13:53:00,35.0,24.0,-100.00,SSE,150,6.0,11.0,63,0.00,,,-99.99,,2013-01-08 19:53:00,
2013-01-08 14:43:00,36.0,25.0,-100.00,SSE,150,7.0,11.0,62,0.00,,,-99.99,,2013-01-08 20:43:00,
2013-01-08 14:54:00,36.0,25.0,-100.00,SSE,150,7.0,11.0,62,0.00,,,-99.99,,2013-01-08 20:54:00,
2013-01-08 15:03:00,36.0,25.0,-100.00,SSE,150,7.0,11.0,62,0.00,,,-99.99,,2013-01-08 21:03:00,
2013-01-08 15:12:00,36.0,25.0,-100.00,SSE,150,7.0,11.0,62,0.00,,,-99.99,,2013-01-08 21:12:00,
2013-01-08 15:43:00,36.0,26.0,-100.00,SE,145,7.0,14.0,64,0.00,,,-99.99,,2013-01-08 21:43:00,
2013-01-08 15:53:00,36.0,26.0,-100.00,SE,145,7.0,14.0,64,0.00,,,-99.99,,2013-01-08 21:53:00,
2013-01-08 16:03:00,36.0,26.0,-100.00,SE,145,7.0,14.0,64,0.00,,,-99.99,,2013-01-08 22:03:00,
2013-01-08 16:12:00,36.0,26.0,-100.00,SE,145,7.0,14.0,64,0.00,,,-99.99,,2013-01-08 22:12:00,
2013-01-08 17:22:00,35.0,27.0,-100.00,South,170,8.0,12.0,72,0.00,,,-99.99,,2013-01-08 23:22:00,
2013-01-08 17:33:00,35.0,27.0,-100.00,South,170,8.0,12.0,72,0.00,,,-99.99,,2013-01-08 23:33:00,
2013-01-08 17:43:00,35.0,27.0,-100.00,South,170,8.0,12.0,72,0.00,,,-99.99,,2013-01-08 23:43:00,
2013-01-08 17:52:00,35.0,27.0,-100.00,South,170,8.0,12.0,72,0.00,,,-99.99,,2013-01-08 23:52:00,
2013-01-08 18:22:00,35.0,28.0,-100.00,South,175,11.0,16.0,76,0.00,,,-99.99,,2013-01-09 00:22:00,
2013-01-08 18:33:00,35.0,28.0,-100.00,South,175,11.0,16.0,76,0.00,,,-99.99,,2013-01-09 00:33:00,
2013-01-08 18:42:00,35.0,28.0,-100.00,South,175,11.0,16.0,76,0.00,,,-99.99,,2013-01-09 00:42:00,
2013-01-08 18:52:00,35.0,28.0,-100.00,South,175,11.0,16.0,76,0.00,,,-99.99,,2013-01-09 00:52:00,
2013-01-08 19:22:00,35.0,29.0,-100.00,South,175,11.0,16.0,78,0.00,,,-99.99,,2013-01-09 01:22:00,
2013-01-08 19:32:00,35.0,29.0,-100.00,South,175,11.0,16.0,78,0.00,,,-99.99,,2013-01-09 01:32:00,
2013-01-08 19:42:00,35.0,29.0,-100.00,South,175,11.0,16.0,78,0.00,,,-99.99,,2013-01-09 01:42:00,
2013-01-08 19:52:00,35.0,29.0,-100.00,South,175,11.0,16.0,78,0.00,,,-99.99,,2013-01-09 01:52:00,
2013-01-08 20:22:00,35.0,30.0,-100.00,South,175,9.0,13.0,79,0.00,,,-99.99,,2013-01-09 02:22:00,
2013-01-08 20:33:00,35.0,30.0,-100.00,South,175,9.0,13.0,79,0.00,,,-99.99,,2013-01-09 02:33:00,
2013-01-08 20:43:00,35.0,30.0,-100.00,South,175,9.0,13.0,79,0.00,,,-99.99,,2013-01-09 02:43:00,
2013-01-08 20:52:00,35.0,30.0,-100.00,South,175,9.0,13.0,79,0.00,,,-99.99,,2013-01-09 02:52:00,
2013-01-08 21:22:00,36.0,29.0,-100.00,SSW,195,11.0,16.0,75,0.00,,,-99.99,,2013-01-09 03:22:00,
2013-01-08 21:33:00,36.0,29.0,-100.00,SSW,195,11.0,16.0,75,0.00,,,-99.99,,2013-01-09 03:33:00,
2013-01-08 21:43:00,36.0,29.0,-100.00,SSW,195,11.0,16.0,75,0.00,,,-99.99,,2013-01-09 03:43:00,
2013-01-08 21:52:00,36.0,29.0,-100.00,SSW,195,11.0,16.0,75,0.00,,,-99.99,,2013-01-09 03:52:00,
2013-01-08 22:22:00,39.0,28.0,-100.00,SSW,205,11.0,20.0,66,0.00,,,-99.99,,2013-01-09 04:22:00,
2013-01-08 22:32:00,39.0,28.0,-100.00,SSW,205,11.0,20.0,66,0.00,,,-99.99,,2013-01-09 04:32:00,
2013-01-08 22:42:00,39.0,28.0,-100.00,SSW,205,11.0,20.0,66,0.00,,,-99.99,,2013-01-09 04:42:00,
2013-01-08 22:52:00,39.0,28.0,-100.00,SSW,205,11.0,20.0,66,0.00,,,-99.99,,2013-01-09 04:52:00,
2013-01-08 23:22:00,38.0,28.0,-100.00,SSW,200,7.0,17.0,66,0.00,,,-99.99,,2013-01-09 05:22:00,
2013-01-08 23:33:00,38.0,28.0,-100.00,SSW,200,7.0,17.0,66,0.00,,,-99.99,,2013-01-09 05:33:00,
2013-01-08 23:42:00,38.0,28.0,-100.00,SSW,200,7.0,17.0,66,0.00,,,-99.99,,2013-01-09 05:42:00,
2013-01-08 23:52:00,38.0,28.0,-100.00,SSW,200,7.0,17.0,66,0.00,,,-99.99,,2013-01-09 05:52:00,